NR0A-4 Weather Reports


time (UTC)temp
F
wind
direction
speed
knots
gust
knots
rain 1hr
in
rain 24hr
in
rain mn
in
humidity
%
barometer
mb
20181018092638 43 157 0.0 0.0 0.00 0.00 0.00 82 1028.0
20181018092139 44 157 0.0 0.0 0.00 0.00 0.00 82 1028.1
20181018091639 44 157 0.0 0.0 0.00 0.00 0.00 82 1028.1
20181018091138 44 157 0.0 0.0 0.00 0.00 0.00 82 1028.3
20181018090638 44 157 0.0 0.0 0.00 0.00 0.00 81 1028.3
20181018090138 44 157 0.0 0.0 0.00 0.00 0.00 81 1028.4
20181018085637 44 200 0.9 0.9 0.00 0.00 0.00 80 1028.3
20181018085137 44 220 1.7 1.7 0.00 0.00 0.00 80 1028.4
20181018084637 44 206 0.9 1.7 0.00 0.00 0.00 80 1028.4
20181018084139 44 176 0.0 0.0 0.00 0.00 0.00 80 1028.4
20181018083638 44 176 0.0 0.0 0.00 0.00 0.00 80 1028.5
20181018083137 44 176 0.0 0.0 0.00 0.00 0.00 80 1028.5
20181018082637 44 176 0.0 0.0 0.00 0.00 0.00 80 1028.5
20181018082137 44 176 0.0 0.0 0.00 0.00 0.00 81 1028.6
20181018081637 44 176 0.0 0.0 0.00 0.00 0.00 81 1028.5
20181018081136 44 176 0.0 0.0 0.00 0.00 0.00 81 1028.6
20181018080636 44 176 0.0 0.0 0.00 0.00 0.00 82 1028.6
20181018080137 44 176 0.0 0.0 0.00 0.00 0.00 82 1028.6
20181018075636 44 209 0.0 1.7 0.00 0.00 0.00 82 1028.6
20181018075136 44 188 0.0 1.7 0.00 0.00 0.00 82 1028.6
20181018074636 44 182 0.0 0.0 0.00 0.00 0.00 82 1028.6
20181018074136 44 147 0.0 0.0 0.00 0.00 0.00 82 1028.6
20181018073636 45 148 0.9 0.9 0.00 0.00 0.00 82 1028.6
20181018073136 45 128 0.0 0.0 0.00 0.00 0.00 82 1028.6
20181018072636 45 137 0.9 1.7 0.00 0.00 0.00 81 1028.5
20181018072136 45 191 0.0 0.0 0.00 0.00 0.00 81 1028.5
20181018071636 45 191 0.0 0.0 0.00 0.00 0.00 81 1028.6
20181018071136 45 191 0.0 0.0 0.00 0.00 0.00 81 1028.5
20181018070636 45 191 0.0 0.0 0.00 0.00 0.00 81 1028.6
20181018070136 45 96 0.0 0.0 0.00 0.00 0.00 81 1028.6
20181018065636 46 96 0.0 0.0 0.00 0.00 0.00 81 1028.6
20181018065136 45 142 0.0 0.9 0.00 0.00 0.00 81 1028.5
20181018064635 46 133 0.0 0.0 0.00 0.00 0.00 81 1028.6
20181018064135 46 133 0.0 0.0 0.00 0.00 0.00 80 1028.6
20181018063635 46 152 0.9 0.9 0.00 0.00 0.00 81 1028.6
20181018063135 46 127 0.0 0.0 0.00 0.00 0.00 81 1028.5
20181018062635 46 127 0.0 0.0 0.00 0.00 0.00 81 1028.6
20181018062135 45 127 0.0 0.0 0.00 0.00 0.00 80 1028.6
20181018061635 46 127 0.0 0.0 0.00 0.00 0.00 80 1028.6
20181018061135 46 127 0.0 0.0 0.00 0.00 0.00 80 1028.6
20181018060635 46 88 0.0 0.0 0.00 0.00 0.00 79 1028.7
20181018060135 46 88 0.0 0.0 0.00 0.00 0.00 79 1028.6
20181018055635 46 88 0.0 0.0 0.00 0.00 0.00 78 1028.6
20181018055135 46 88 0.0 0.0 0.00 0.00 0.00 78 1028.6
20181018054635 47 88 0.0 0.0 0.00 0.00 0.00 78 1028.6
20181018054135 47 88 0.0 0.0 0.00 0.00 0.00 78 1028.6
20181018053635 47 90 0.0 0.9 0.00 0.00 0.00 77 1028.6
20181018053135 47 44 0.0 0.0 0.00 0.00 0.00 77 1028.7
20181018052635 47 44 0.0 0.9 0.00 0.00 0.00 77 1028.7
20181018052135 47 40 0.0 0.0 0.00 0.00 0.00 76 1028.7
20181018051635 47 69 0.0 0.0 0.00 0.00 0.00 76 1028.8
20181018051135 48 66 0.9 1.7 0.00 0.00 0.00 76 1028.8
20181018050640 48 71 0.0 0.0 0.00 0.00 0.00 75 1028.8
20181018050140 48 67 0.9 1.7 0.00 0.00 0.00 75 1028.8
20181018045640 48 34 0.0 0.9 0.00 0.00 0.00 75 1028.8
20181018045140 48 76 0.9 1.7 0.00 0.00 0.00 74 1028.9
20181018044640 48 71 0.9 1.7 0.00 0.00 0.00 74 1028.9
20181018044140 49 82 1.7 2.6 0.00 0.00 0.00 73 1029.0
20181018043640 49 63 1.7 2.6 0.00 0.00 0.00 73 1028.9
20181018043140 49 61 0.9 1.7 0.00 0.00 0.00 73 1029.0
20181018042640 49 60 0.9 2.6 0.00 0.00 0.00 73 1029.0
20181018042139 49 78 0.9 0.9 0.00 0.00 0.00 72 1029.1
20181018041639 49 61 1.7 2.6 0.00 0.00 0.00 72 1029.2
20181018041139 49 76 0.0 0.0 0.00 0.00 0.00 72 1029.2
20181018040638 50 48 0.0 0.0 0.00 0.00 0.00 71 1029.2
20181018040139 50 77 0.9 2.6 0.00 0.00 0.00 71 1029.2
20181018035638 50 70 1.7 4.3 0.00 0.00 0.00 70 1029.2
20181018035138 50 81 2.6 5.2 0.00 0.00 0.00 70 1029.3
20181018034638 50 73 1.7 2.6 0.00 0.00 0.00 70 1029.2
20181018034138 51 51 0.0 0.0 0.00 0.00 0.00 69 1028.3
20181018033638 51 51 0.0 0.0 0.00 0.00 0.00 69 1029.3
20181018033138 51 51 0.0 0.0 0.00 0.00 0.00 69 1029.3
20181018032637 51 51 0.0 0.0 0.00 0.00 0.00 68 1028.8
20181018032136 51 51 0.0 0.0 0.00 0.00 0.00 68 1029.3
20181018031636 51 51 0.0 0.0 0.00 0.00 0.00 67 1029.1
20181018031136 51 51 0.0 0.0 0.00 0.00 0.00 67 1029.2
20181018030636 52 51 0.0 0.0 0.00 0.00 0.00 67 1029.2
20181018030136 52 51 0.0 0.0 0.00 0.00 0.00 67 1029.2
20181018025636 52 51 0.0 0.0 0.00 0.00 0.00 66 1029.2
20181018025136 52 51 0.0 0.0 0.00 0.00 0.00 66 1029.2
20181018024636 52 51 0.0 0.0 0.00 0.00 0.00 65 1029.1
20181018024136 52 70 1.7 2.6 0.00 0.00 0.00 65 1029.1
20181018023635 53 62 0.0 2.6 0.00 0.00 0.00 65 1029.1
20181018023135 53 59 1.7 4.3 0.00 0.00 0.00 64 1029.1
20181018022635 53 75 0.9 1.7 0.00 0.00 0.00 64 1029.0
20181018022135 53 73 0.0 0.0 0.00 0.00 0.00 63 1029.0
20181018021639 53 88 0.0 0.0 0.00 0.00 0.00 63 1028.9
20181018021139 54 48 0.0 1.7 0.00 0.00 0.00 63 1029.0
20181018020639 54 66 0.0 0.0 0.00 0.00 0.00 62 1028.9
20181018020139 54 45 0.0 0.0 0.00 0.00 0.00 61 1028.9
20181018015639 54 70 0.9 4.3 0.00 0.00 0.00 61 1028.9
20181018015139 55 68 1.7 4.3 0.00 0.00 0.00 61 1028.9
20181018014639 55 64 0.9 2.6 0.00 0.00 0.00 61 1028.9
20181018014139 55 49 0.0 1.7 0.00 0.00 0.00 60 1028.8
20181018013639 56 0 0.0 0.0 0.00 0.00 0.00 60 1028.9
20181018013138 56 0 0.0 0.0 0.00 0.00 0.00 59 1028.9
20181018012638 56 0 0.0 0.0 0.00 0.00 0.00 59 1028.8
20181018012138 56 0 0.0 0.0 0.00 0.00 0.00 58 1028.9
20181018011638 57 0 0.0 0.0 0.00 0.00 0.00 58 1028.9
20181018011137 57 0 0.0 0.0 0.00 0.00 0.00 57 1028.9
20181018010637 57 0 0.0 0.0 0.00 0.00 0.00 57 1028.8
20181018010137 57 0 0.0 0.0 0.00 0.00 0.00 56 1028.7
20181018005637 58 61 2.6 4.3 0.00 0.00 0.00 56 1028.7
20181018005137 58 69 2.6 4.3 0.00 0.00 0.00 56 1028.6
20181018004637 58 69 0.9 2.6 0.00 0.00 0.00 55 1028.6
20181018004137 59 82 1.7 4.3 0.00 0.00 0.00 54 1028.7
20181018003637 59 63 1.7 5.2 0.00 0.00 0.00 54 1028.6
20181018003135 59 56 1.7 4.3 0.00 0.00 0.00 53 1028.6
20181018002635 60 63 4.3 5.2 0.00 0.00 0.00 52 1028.5
20181018002135 60 56 1.7 4.3 0.00 0.00 0.00 52 1028.5
20181018001636 60 72 0.0 0.0 0.00 0.00 0.00 52 1028.5
20181018001135 60 72 0.0 0.0 0.00 0.00 0.00 52 1028.4
20181018000635 61 72 0.0 0.0 0.00 0.00 0.00 51 1028.4
20181018000135 61 72 0.0 0.0 0.00 0.00 0.00 51 1028.3
20181017235635 61 72 0.0 0.0 0.00 0.00 0.00 50 1028.3
20181017235135 61 72 0.0 0.0 0.00 0.00 0.00 50 1028.3
20181017234635 62 72 0.0 0.0 0.00 0.00 0.00 50 1028.3
20181017234135 62 72 0.0 0.0 0.00 0.00 0.00 49 1028.2
20181017233635 62 72 0.0 0.0 0.00 0.00 0.00 49 1028.1
20181017233135 62 72 0.0 0.0 0.00 0.00 0.00 49 1028.1
20181017232635 63 72 0.0 0.0 0.00 0.00 0.00 48 1028.1
20181017232135 63 72 0.0 0.0 0.00 0.00 0.00 47 1028.1
20181017231635 64 72 0.0 0.0 0.00 0.00 0.00 47 1028.1
20181017231135 64 72 0.0 0.0 0.00 0.00 0.00 46 1028.1
20181017230639 64 72 0.0 0.0 0.00 0.00 0.00 45 1028.0
20181017230139 65 72 0.0 0.0 0.00 0.00 0.00 45 1028.1
20181017225639 65 72 0.0 0.0 0.00 0.00 0.00 45 1028.0
20181017225139 65 72 0.0 0.0 0.00 0.00 0.00 44 1028.1
20181017224639 65 72 0.0 0.0 0.00 0.00 0.00 44 1028.1
20181017224139 65 72 0.0 0.0 0.00 0.00 0.00 44 1028.1
20181017223639 65 72 0.0 0.0 0.00 0.00 0.00 43 1028.2
20181017223139 66 72 0.0 0.0 0.00 0.00 0.00 43 1028.1
20181017222639 66 11 0.0 2.6 0.00 0.00 0.00 42 1028.1
20181017222139 66 10 0.0 0.0 0.00 0.00 0.00 43 1028.2
20181017221639 65 10 0.0 0.0 0.00 0.00 0.00 43 1028.3
20181017221137 65 10 0.0 0.0 0.00 0.00 0.00 44 1028.3
20181017220636 65 14 0.9 2.6 0.00 0.00 0.00 44 1028.4
20181017220137 65 20 0.9 0.9 0.00 0.00 0.00 44 1028.4
20181017215636 65 8 0.9 2.6 0.00 0.00 0.00 44 1028.3
20181017215135 65 101 0.9 1.7 0.00 0.00 0.00 44 1028.3
20181017214635 65 17 0.0 4.3 0.00 0.00 0.00 45 1028.3
20181017214138 65 22 0.9 1.7 0.00 0.00 0.00 45 1028.3
20181017213637 65 343 0.0 1.7 0.00 0.00 0.00 45 1028.4
20181017213137 65 320 0.0 0.0 0.00 0.00 0.00 44 1028.4
20181017212637 66 28 1.7 1.7 0.00 0.00 0.00 44 1028.4
20181017212137 66 8 0.0 0.9 0.00 0.00 0.00 43 1028.5
20181017211636 65 112 1.7 2.6 0.00 0.00 0.00 44 1028.5
20181017211136 65 87 1.7 4.3 0.00 0.00 0.00 43 1028.6
20181017210636 66 309 0.0 0.0 0.00 0.00 0.00 43 1028.6
20181017210136 66 248 0.9 0.9 0.00 0.00 0.00 43 1028.6
20181017205636 67 233 4.3 6.1 0.00 0.00 0.00 42 1028.5
20181017205135 66 193 1.7 2.6 0.00 0.00 0.00 41 1028.6
20181017204635 66 226 0.9 4.3 0.00 0.00 0.00 42 1028.6
20181017204135 66 345 1.7 5.2 0.00 0.00 0.00 44 1028.7
20181017203635 65 235 2.6 6.1 0.00 0.00 0.00 43 1028.6
20181017203135 65 196 0.9 2.6 0.00 0.00 0.00 44 1028.7
20181017202635 66 232 2.6 7.8 0.00 0.00 0.00 43 1028.7
20181017202139 66 234 2.6 7.8 0.00 0.00 0.00 43 1028.7
20181017201639 66 256 0.0 2.6 0.00 0.00 0.00 43 1028.8
20181017201139 66 206 0.0 0.9 0.00 0.00 0.00 44 1028.8
20181017200639 65 222 0.0 0.0 0.00 0.00 0.00 45 1028.8
20181017200139 65 226 1.7 4.3 0.00 0.00 0.00 45 1028.9
20181017195639 65 225 2.6 6.1 0.00 0.00 0.00 45 1028.9
20181017195139 64 273 4.3 6.1 0.00 0.00 0.00 45 1029.0
20181017194639 64 221 0.9 4.3 0.00 0.00 0.00 45 1029.1
20181017194139 65 334 1.7 1.7 0.00 0.00 0.00 44 1029.1
20181017193639 64 117 0.0 0.0 0.00 0.00 0.00 46 1029.2
20181017193139 63 256 0.0 0.0 0.00 0.00 0.00 47 1029.3
20181017192639 62 113 1.7 5.2 0.00 0.00 0.00 48 1029.3
20181017192139 62 166 0.9 1.7 0.00 0.00 0.00 49 1029.4
20181017191639 62 153 1.7 2.6 0.00 0.00 0.00 48 1029.5
20181017191139 62 178 1.7 1.7 0.00 0.00 0.00 48 1029.5
20181017190639 62 191 4.3 5.2 0.00 0.00 0.00 49 1029.6
20181017190139 61 237 0.0 0.9 0.00 0.00 0.00 51 1029.7
20181017185639 61 169 2.6 2.6 0.00 0.00 0.00 49 1029.7
20181017185138 62 242 2.6 4.3 0.00 0.00 0.00 50 1029.8
20181017184638 61 104 0.0 1.7 0.00 0.00 0.00 50 1029.9
20181017184139 61 316 0.0 0.0 0.00 0.00 0.00 52 1029.9
20181017183638 60 176 0.9 1.7 0.00 0.00 0.00 52 1030.1
20181017183138 60 171 0.9 0.9 0.00 0.00 0.00 52 1030.2
20181017182638 60 175 2.6 2.6 0.00 0.00 0.00 53 1030.2
20181017182138 59 147 1.7 1.7 0.00 0.00 0.00 54 1030.3
20181017181638 59 202 0.9 7.0 0.00 0.00 0.00 55 1030.3
20181017181137 59 73 1.7 4.3 0.00 0.00 0.00 54 1030.3
20181017180637 59 4 0.9 0.0 0.00 0.00 0.00 55 1030.4
20181017180137 59 12 0.9 0.9 0.00 0.00 0.00 55 1030.4
20181017175637 58 10 0.0 0.0 0.00 0.00 0.00 57 1030.5
20181017175137 58 304 0.0 0.0 0.00 0.00 0.00 59 1030.6
20181017174637 58 37 0.0 0.9 0.00 0.00 0.00 59 1030.6
20181017174137 57 126 0.0 0.0 0.00 0.00 0.00 60 1030.6
20181017173637 56 78 0.9 1.7 0.00 0.00 0.00 60 1030.7
20181017173137 57 29 0.9 1.7 0.00 0.00 0.00 59 1030.7
20181017172637 57 77 0.9 4.3 0.00 0.00 0.00 58 1030.7
20181017172137 57 158 0.0 0.0 0.00 0.00 0.00 60 1030.8
20181017171637 56 182 0.0 2.6 0.00 0.00 0.00 62 1030.8
20181017171137 55 178 0.9 1.7 0.00 0.00 0.00 61 1030.8
20181017170637 56 25 1.7 2.6 0.00 0.00 0.00 61 1030.8
20181017170135 55 198 0.0 0.9 0.00 0.00 0.00 63 1030.8
20181017165639 55 324 0.0 1.7 0.00 0.00 0.00 63 1030.8
20181017165140 54 316 0.0 0.0 0.00 0.00 0.00 65 1030.8
20181017164639 54 189 0.0 0.0 0.00 0.00 0.00 64 1030.9
20181017164139 54 12 1.7 4.3 0.00 0.00 0.00 65 1031.0
20181017163639 54 71 0.9 0.9 0.00 0.00 0.00 66 1031.0
20181017163139 53 257 0.0 1.7 0.00 0.00 0.00 68 1031.1
20181017162639 52 271 0.0 4.3 0.00 0.00 0.00 69 1031.2
20181017162140 52 258 0.0 0.0 0.00 0.00 0.00 69 1031.1
20181017161639 51 195 0.0 0.0 0.00 0.00 0.00 71 1031.1
20181017161139 51 334 1.7 2.6 0.00 0.00 0.00 70 1031.2
20181017160639 51 73 0.0 0.0 0.00 0.00 0.00 72 1031.1
20181017160139 51 337 0.9 6.1 0.00 0.00 0.00 73 1031.1
20181017155639 50 18 1.7 4.3 0.00 0.00 0.00 73 1031.1
20181017155139 50 89 0.9 1.7 0.00 0.00 0.00 74 1031.1
20181017154639 50 14 1.7 2.6 0.00 0.00 0.00 74 1031.1
20181017154139 50 352 0.9 2.6 0.00 0.00 0.00 74 1031.1
20181017153639 50 346 1.7 5.2 0.00 0.00 0.00 74 1031.0
20181017153139 50 65 0.0 0.0 0.00 0.00 0.00 74 1030.8
20181017152639 50 0 0.0 2.6 0.00 0.00 0.00 75 1030.7
20181017152139 49 311 1.7 2.6 0.00 0.00 0.00 75 1030.7
20181017151639 49 279 0.9 1.7 0.00 0.00 0.00 76 1030.8
20181017151139 49 280 0.0 0.9 0.00 0.00 0.00 79 1030.7
20181017150639 48 202 0.0 0.0 0.00 0.00 0.00 80 1030.7
20181017150139 47 294 0.0 0.0 0.00 0.00 0.00 82 1030.6
20181017145639 46 294 0.0 0.0 0.00 0.00 0.00 85 1030.6
20181017145139 45 282 0.9 0.0 0.00 0.00 0.00 87 1030.6
20181017144639 43 317 0.9 5.2 0.00 0.00 0.00 92 1030.6
20181017144139 42 284 0.9 6.1 0.00 0.00 0.00 94 1030.5
20181017143639 41 191 0.0 0.0 0.00 0.00 0.00 94 1030.5
20181017143139 40 207 1.7 1.7 0.00 0.00 0.00 95 1030.5
20181017142639 40 169 0.0 0.0 0.00 0.00 0.00 96 1030.3
20181017142139 39 202 0.0 0.0 0.00 0.00 0.00 98 1030.2
20181017141639 38 202 0.0 0.0 0.00 0.00 0.00 99 1030.1
20181017141139 37 202 0.0 0.0 0.00 0.00 0.00 99 1029.9
20181017140639 37 205 0.9 1.7 0.00 0.00 0.00 99 1029.8
20181017140139 36 222 0.0 0.0 0.00 0.00 0.00 99 1029.8
20181017135639 36 226 0.9 2.6 0.00 0.00 0.00 99 1029.7
20181017135138 35 219 0.9 1.7 0.00 0.00 0.00 99 1029.6
20181017134637 35 235 0.9 1.7 0.00 0.00 0.00 99 1029.6
20181017134137 35 238 0.9 4.3 0.00 0.00 0.00 99 1029.5
20181017133637 34 229 1.7 4.3 0.00 0.00 0.00 99 1029.5
20181017133137 34 213 0.9 1.7 0.00 0.00 0.00 99 1029.4
20181017132637 34 231 1.7 2.6 0.00 0.00 0.00 99 1029.3
20181017132137 34 222 0.0 0.0 0.00 0.00 0.00 99 1029.3
20181017131637 34 222 0.0 0.0 0.00 0.00 0.00 99 1029.2
20181017131137 34 222 0.0 0.0 0.00 0.00 0.00 99 1029.1
20181017130637 33 222 0.0 0.0 0.00 0.00 0.00 99 1029.0
20181017130137 33 222 0.0 0.0 0.00 0.00 0.00 99 1029.0
20181017125637 33 222 0.0 0.0 0.00 0.00 0.00 99 1029.0
20181017125137 33 221 0.0 0.9 0.00 0.00 0.00 99 1028.9
20181017124637 33 219 0.0 0.0 0.00 0.00 0.00 99 1028.8
20181017124137 33 219 0.0 0.0 0.00 0.00 0.00 99 1028.6
20181017123637 33 219 0.0 0.0 0.00 0.00 0.00 99 1028.5
20181017123137 34 219 0.0 0.0 0.00 0.00 0.00 99 1028.6
20181017122637 34 213 0.0 0.0 0.00 0.00 0.00 99 1028.5
20181017122137 34 213 0.0 0.0 0.00 0.00 0.00 99 1028.5
20181017121637 34 213 0.0 0.0 0.00 0.00 0.00 99 1028.4
20181017121137 34 213 0.0 0.0 0.00 0.00 0.00 99 1028.1
20181017120637 34 213 0.0 0.0 0.00 0.00 0.00 99 1028.0
20181017120136 34 213 0.0 0.0 0.00 0.00 0.00 99 1028.0
20181017115636 34 213 0.0 0.0 0.00 0.00 0.00 99 1028.0
20181017115135 34 213 0.0 0.0 0.00 0.00 0.00 99 1027.9
20181017114635 34 213 0.0 0.0 0.00 0.00 0.00 99 1027.9
20181017114135 34 213 0.0 0.0 0.00 0.00 0.00 99 1027.9
20181017113635 34 213 0.0 0.0 0.00 0.00 0.00 99 1027.8
20181017113135 34 213 0.0 0.0 0.00 0.00 0.00 99 1027.9
20181017112635 34 213 0.0 0.0 0.00 0.00 0.00 99 1027.9
20181017112135 34 202 0.0 0.9 0.00 0.00 0.00 99 1027.8
20181017111635 34 193 0.0 0.0 0.00 0.00 0.00 99 1027.7
20181017111135 34 217 0.0 0.0 0.00 0.00 0.00 99 1027.7
20181017110635 34 217 0.0 0.0 0.00 0.00 0.00 99 1027.8
20181017110135 34 217 0.0 0.0 0.00 0.00 0.00 99 1027.8
20181017105636 34 217 0.0 0.0 0.00 0.00 0.00 99 1027.7
20181017105136 34 217 0.0 0.0 0.00 0.00 0.00 99 1027.6
20181017104635 35 219 0.9 1.7 0.00 0.00 0.00 99 1027.6
20181017104136 34 130 0.0 0.0 0.00 0.00 0.00 99 1027.4
20181017103635 34 195 0.0 0.0 0.00 0.00 0.00 99 1027.3
20181017103135 34 195 0.0 0.0 0.00 0.00 0.00 99 1027.2
20181017102635 35 195 0.0 0.0 0.00 0.00 0.00 99 1027.2
20181017102135 35 195 0.0 0.0 0.00 0.00 0.00 99 1027.2
20181017101635 35 195 0.0 0.0 0.00 0.00 0.00 99 1027.2
20181017101135 35 353 0.0 0.0 0.00 0.00 0.00 99 1027.2
20181017100635 35 353 0.0 0.0 0.00 0.00 0.00 99 1027.1
20181017100135 35 353 0.0 0.0 0.00 0.00 0.00 99 1027.1
20181017095635 35 353 0.0 0.0 0.00 0.00 0.00 99 1027.1
20181017095135 35 353 0.0 0.0 0.00 0.00 0.00 99 1027.1
20181017094635 35 353 0.0 0.0 0.00 0.00 0.00 99 1027.1
20181017094135 35 216 0.0 0.0 0.00 0.00 0.00 99 1027.1
20181017093635 35 216 0.0 0.0 0.00 0.00 0.00 99 1027.1
20181017093135 35 216 0.0 0.0 0.00 0.00 0.00 98 1027.1